Location: Del Amo
(33.8464°N, 118.2104°W)
Time: 18:49:42
(UTC+00:00)

Vanguard 3 - Pass Details

Date: 22 September 2024
Orbit: 507 x 3224 km, 33.4° (Epoch: 05 October)

Event Time Altitude Azimuth Distance (km) Brightness Sun altitude
Rises 15:53:37 0° 276° (W) 6,736 11.3 26.1°
Reaches altitude 10° 15:57:47 10° 276° (W) 5,912 11.1 26.9°
Maximum altitude 16:17:35 85° 191° (S) 3,155 10.7 30.8°
Drops below altitude 10° 16:34:22 10° 105° (ESE) 5,138 12.6 33.9°
Sets 16:37:42 0° 105° (ESE) 5,860 12.5 34.5°
